Weather in Probezhnaya

Ukraine / Ternopil District     49°01′13″N   25°59′19″E
temp.,
°C
wind,
m/s
gust,
m/s
humid.,
%
clouds,
%
prec.,
mm/h
press.,
hPa
HPBL,
m
14 may, fri
fri1400:00+10se6119459 0.2 1005344
03:00+8se379823 0.2 1005150
06:00+8se339956 0.0 100468
09:00+13se228248 0.0 1004315
12:00+16sse4371100 0.3 1005764
15:00+15ssw567680 1.8 1005539
18:00+14sw477883 0.2 1006381
21:00+12wsw41077100 0.2 1007442
15 may, sat
sat1500:00+11wsw3579100 0.0 1008123
03:00+10wsw277761 0.0 1009185
06:00+10wsw3891100 0.4 1009313
09:00+11w41089100 0.7 1011598
12:00+11wnw4986100 0.0 1012613
15:00+13nnw357417 0.0 1012460
18:00+16wnw026159 0.0 10111170
21:00+12ese337954 0.1 101147
16 may, sun
sun1600:00+10ese348515 0.0 101158
03:00+9ese36875 0.0 1012108
06:00+8ese388914 0.0 1011158
09:00+14se577781 0.0 1010419
12:00+18sse7968100 0.0 1009810
15:00+20sse81161100 0.5 10071749
18:00+18sse81371100 0.8 10061293
21:00+13ssw4993100 2.9 1007261
17 may, mon
mon1700:00+12wsw2597100 6.3 1008139
03:00+12nw2596100 9.3 1008171
06:00+11wnw3796100 0.3 1008288
09:00+11nw4893100 0.4 1010403
12:00+16nw676470 0.1 10091492
15:00+18nw56529 0.1 10091935
18:00+18nw34559 0.0 10091324
21:00+13nnw117517 0.0 101011
18 may, tue
tue1800:00+12sse1175100 0.0 101110
03:00+12sse1180100 0.3 101111
06:00+11e358492 0.1 101090
09:00+14se378174 0.1 1010402
12:00+18sse676991 0.2 1009845
15:00+20se5664100 1.1 10051265
18:00+17s3781100 3.1 1004289
21:00+14n3597100 6.0 1002160